Kalispell, MT

3:21 AM MDT on March 23, 2017 (GMT -0600)
Glacier Park International

Weather History for KGPI - October, 2010

Change the Weather History Date:

Saturday, October 16, 2010

  Actual Average Record
Temperature  
Mean Temperature 37 °F 42 °F  
Max Temperature 55 °F 55 °F 73 °F (1974)
Min Temperature 19 °F 29 °F 15 °F (1999)
Degree Days  
Heating Degree Days 28 23  
Month to date heating degree days 251 323  
Since 1 July heating degree days 771 823  
Cooling Degree Days 0 0  
Month to date cooling degree days 0 0  
Year to date cooling degree days 84 147  
Moisture  
Dew Point 22 °F    
Average Humidity 58    
Maximum Humidity 88    
Minimum Humidity 28    
Precipitation  
Precipitation 0.00 in 0.03 in 0.57 in (2004)
Month to date precipitation 0.11 0.47  
Year to date precipitation 15.44 13.46  
Snow  
Snow 0.00 in - - ()
Month to date snowfall 0.0  
Year to date snowfall 17.9  
Since 1 July snowfall 0.0  
Snow Depth 0.00 in    
Sea Level Pressure  
Sea Level Pressure 30.21 in    
Wind  
Wind Speed 1 mph (SSE)    
Max Wind Speed 16 mph    
Max Gust Speed 39 mph    
Visibility 10 miles    
Events      
T = Trace of Precipitation, MM = Missing Value Source: NWS Daily Summary

Daily Weather History Graph

Daily Weather History Graph

Search for Another Location

Airport or City:

Trip Planner

Search our weather history database for the weather conditions in past years. The results will help you decide how hot, cold, wet, or windy it might be!

Date:

Astronomy

Oct. 16, 2010 Rise Set
Actual Time 7:58 AM MDT 6:45 PM MDT
Civil Twilight 7:26 AM MDT 7:17 PM MDT
Nautical Twilight 6:50 AM MDT 7:53 PM MDT
Astronomical Twilight 6:14 AM MDT 8:29 PM MDT
Moon 4:05 PM MDT (10/16) 1:26 AM MDT (10/16)
Length of Visible Light 11h 50m
Length of Day
10h 47m
Waxing Gibbous, 67% of the Moon is Illuminated
Oct 16
Waxing Gibbous
Oct 22
Full
Oct 30
Last Quarter
Nov 5
New
Nov 13
First Quarter

Hourly Weather History & Observations

Time (MDT) Temp. Windchill Dew Point Humidity Pressure Visibility Wind Dir Wind Speed Gust Speed Precip Events Conditions
12:55 AM 24.1 °F - 19.0 °F 81% 30.29 in 10.0 mi Calm Calm - N/A   Clear
1:55 AM 21.9 °F - 18.0 °F 85% 30.29 in 10.0 mi Calm Calm - N/A   Clear
2:55 AM 23.0 °F - 18.0 °F 81% 30.29 in 10.0 mi Calm Calm - N/A   Clear
3:55 AM 21.9 °F - 18.0 °F 85% 30.29 in 10.0 mi Calm Calm - N/A   Clear
4:55 AM 23.0 °F - 18.0 °F 81% 30.28 in 10.0 mi North - - N/A   Clear
5:55 AM 21.9 °F - 18.0 °F 85% 30.26 in 10.0 mi Calm Calm - N/A   Clear
6:55 AM 21.0 °F - 17.1 °F 85% 30.27 in 10.0 mi Calm Calm - N/A   Clear
7:55 AM 21.0 °F - 18.0 °F 88% 30.28 in 10.0 mi Calm Calm - N/A   Clear
8:55 AM 27.0 °F - 21.9 °F 81% 30.26 in 10.0 mi Calm Calm - N/A   Clear
9:55 AM 34.0 °F 31.0 °F 28.0 °F 79% 30.26 in 10.0 mi ENE 3.5 mph - N/A   Clear
10:55 AM 37.0 °F - 27.0 °F 67% 30.24 in 10.0 mi Calm Calm - N/A   Clear
11:55 AM 43.0 °F 40.3 °F 25.0 °F 49% 30.21 in 10.0 mi North 4.6 mph - N/A   Clear
12:55 PM 46.9 °F - 23.0 °F 39% 30.19 in 10.0 mi Calm Calm - N/A   Clear
1:55 PM 50.0 °F - 24.1 °F 36% 30.17 in 10.0 mi Calm Calm - N/A   Clear
2:55 PM 51.1 °F - 21.9 °F 32% 30.14 in 10.0 mi Variable 4.6 mph - N/A   Clear
3:55 PM 53.6 °F - 23.0 °F 30% 30.06 in 10.0 mi South 5.8 mph - N/A   Clear
4:55 PM 53.1 °F - 21.9 °F 30% 30.11 in 10.0 mi South 5.8 mph - N/A   Clear
5:55 PM 52.0 °F - 25.0 °F 35% 30.11 in 10.0 mi SSW 3.5 mph - N/A   Clear
6:55 PM 45.0 °F - 26.1 °F 48% 30.13 in 10.0 mi Calm Calm - N/A   Clear
7:55 PM 35.1 °F - 25.0 °F 67% 30.16 in 10.0 mi Calm Calm - N/A   Clear
8:55 PM 33.1 °F - 24.1 °F 70% 30.15 in 10.0 mi Calm Calm - N/A   Clear
9:55 PM 27.0 °F - 21.9 °F 81% 30.16 in 10.0 mi Calm Calm - N/A   Clear
10:55 PM 28.9 °F - 21.9 °F 75% 30.17 in 10.0 mi Calm Calm - N/A   Clear
11:55 PM 25.0 °F - 21.0 °F 85% 30.18 in 10.0 mi Calm Calm - N/A   Clear